Regional Weather Roundup
Issued by NWS

Home | Current Version | Previous Version | Graphics & Text | Print | Product List | Glossary On
Versions: 1 2 3 4 5 6 7 8 9 10 11 12 13 14 15 16 17 18 19 20 21 22 23 24 25 26 27 28 29 30 31 32 33 34 35 36 37 38 39 40 41 42 43 44 45 46 47 48 49 50
000
ASUS45 KBOU 010607
RWRCO

WEATHER ROUNDUP FOR COLORADO
NATIONAL WEATHER SERVICE DENVER/BOULDER CO
1200 AM MDT FRI AUG 01 2014

NOTE: "FAIR" INDICATES FEW OR NO CLOUDS BELOW 12000 FEET WITH NO
SIGNIFICANT WEATHER AND/OR OBSTRUCTIONS TO VISIBILITY.

COZ001>005-013-030-031-010700-
...NORTHWEST COLORADO...

CITY           SKY/WX    TMP DP  RH WIND       PRES   REMARKS
CRAIG          MOCLDY    55  52  89 N8        30.24S
HAYDEN         PTCLDY    63  46  55 SE13      30.27S
MEEKER         CLOUDY    63  51  65 NE6       30.25R
MOUNT WERNER   NOT AVBL
STEAMBOAT SPGS PTCLDY    56  47  69 CALM      30.31S
WALDEN         CLEAR     50  41  71 CALM      30.41S
$$

COZ006>008-011-010700-
...WEST CENTRAL VALLEYS...

CITY           SKY/WX    TMP DP  RH WIND       PRES   REMARKS
GRAND JUNCTION CLOUDY    72  53  51 NW6       30.13R
MONTROSE       MOCLDY    68  55  63 SE13      30.23R
EAGLE          PTCLDY    59  55  88 CALM      30.32R
RIFLE          MOCLDY    67  49  52 SE8       30.20R
DELTA          MOCLDY    73  50  45 E5        30.18R
NUCLA          MOCLDY    68  52  56 SE8       30.26R
$$

COZ017>023-064>068-010700-
...SOUTHWEST COLORADO...

CITY           SKY/WX    TMP DP  RH WIND       PRES   REMARKS
DURANGO        MOCLDY    63  52  67 E6        30.32R
CORTEZ         CLEAR     70  54  56 SW10      30.24R
PAGOSA SPRINGS CLOUDY    58  55  87 CALM      30.42R
TELLURIDE      CLOUDY    57  48  72 SE6       30.46R
WOLF CREEK PAS NOT AVBL
$$

COZ009-010-012-014-032>034-037-058>063-010700-
...CENTRAL COLORADO...

CITY           SKY/WX    TMP DP  RH WIND       PRES   REMARKS
ASPEN          CLOUDY    58  51  78 SW5       30.37R
BUENA VISTA    CLOUDY    53  51  94 CALM      30.46R
COPPER MTN     CLOUDY    46  37  71 S17       30.66S
BERTHOUD PASS  FOG       34  34 100 SE16      30.70F VSB 1/4 WCI  23
COTTONWOOD PAS CLOUDY    52  46  82 CALM      30.56R
GUNNISON       MOCLDY    55  46  71 W3        30.44R
KREMMLING      PTCLDY    55  45  67 CALM      30.38S
LEADVILLE      CLOUDY    47  46  97 SW3         N/A  FOG
MONARCH PASS   HVY RAIN  41  39  93 SW10      30.78R
SALIDA         CLOUDY    56  55  96 S3        30.51R
SUNLIGHT       PTCLDY    52  46  82 CALM      30.58S
WILKERSON PASS FOG       43  41  93 NE8       30.67R VSB 1/4
$$

COZ069>075-010700-
...SAN LUIS VALLEY/SANGRE DE CRISTO MOUNTAINS...

CITY           SKY/WX    TMP DP  RH WIND       PRES   REMARKS
ALAMOSA        MOCLDY    55  51  86 SE6       30.39S
LA VETA PASS   FOG       46  45  93 E6        30.56S VSB 1/4
SAGUACHE       CLOUDY    55  54  94 NW3       30.44R
$$

COZ035-036-038>040-010700-
...NORTHERN COLORADO FRONT RANGE...

CITY           SKY/WX    TMP DP  RH WIND       PRES   REMARKS
DENVER INTL AP PTCLDY    63  52  67 SW9       30.28S
DMNS CITY PARK   N/A     61  52  72 S3        30.27F
AURORA         PTCLDY    59  53  82 S8        30.31R
FRONT RANGE AP PTCLDY    61  55  82 S7        30.30R
ERIE MUNI ARPT PTCLDY    59  53  79 CALM      30.26S
BOULDER MUN AP PTCLDY    64  46  52 SW6       30.27S
CENTENNIAL     PTCLDY    60  54  80 S3        30.31S
BROOMFIELD     PTCLDY    59  50  72 W9        30.30S
FORT COLLINS   CLEAR     63  48  59 CALM      30.27R
LONGMONT       CLEAR     63  51  65 W6        30.28S
$$

COZ041-046-047-076>085-087-088-010700-
...PIKES PEAK/PALMER DIVIDE AND SOUTHERN FOOTHILLS...

CITY           SKY/WX    TMP DP  RH WIND       PRES   REMARKS
COLO. SPRINGS  CLOUDY    63  55  75 CALM      30.36S
A. F. ACADEMY  MOCLDY    58  58  99 N3        30.37R
ELLICOTT       MOCLDY    58  55  90 S5        30.34S
FALCON         CLOUDY    58  56  94 CALM      30.40R
FORT CARSON    CLOUDY    63  55  76 W2        30.34R
LIMON          CLEAR     54  52  93 N5        30.30R
MONUMENT HILL  PTCLDY    54  52  94 SW7       30.38S FOG
TRINIDAD       NOT AVBL
$$

COZ042>045-048>051-090-091-010700-
...NORTHEAST COLORADO...

CITY           SKY/WX    TMP DP  RH WIND       PRES   REMARKS
GREELEY ARPT   NOT AVBL
AKRON          CLEAR     63  52  67 SW14      30.23R
BURLINGTON     CLEAR     61  51  70 W9        30.21S
WRAY             N/A     67  56  69 CALM      30.18R
STERLING       CLEAR     64  61  88 SE5       30.19R
HOLYOKE        CLEAR     63  59  88 NE3       30.18S
FORT MORGAN    CLEAR     65  51  59 S6        30.23R
$$

COZ086-089-092>099-010700-
...SOUTHEAST COLORADO...

CITY           SKY/WX    TMP DP  RH WIND       PRES   REMARKS
PUEBLO         CLOUDY    65  61  87 SW3       30.28R
LA JUNTA       CLOUDY    64  58  80 SW3       30.24S
LAMAR          MOCLDY    61  57  87 S8        30.20R
SPRINGFIELD      N/A     61  57  87 SW5       30.25F
$$


USA.gov is the U.S. government's official web portal to all federal, state and local government web resources and services.